Terminal Aerodrome Forecast
Issued by NWS Columbia, SC

Home | Current Version | Previous Version | Text Only | Print | Product List | Glossary On
Versions: 1 2 3 4 5 6 7 8 9 10 11 12 13 14 15 16 17 18 19 20 21 22 23 24 25 26 27 28 29 30 31 32 33 34 35 36 37 38 39 40 41 42 43 44 45
929
FTAK31 PAJN 030914 AAB
TAFAGS
TAF AMD
PAGS 030914Z 0309/0406 14007KT P6SM -SHRA SCT013 OVC040
      TEMPO 0309/0313 BKN012 OVC020
     FM031500 20008KT P6SM -SHRASN BKN025 OVC035
      AMD LTD TO CLD VIS AND WIND=

USA.gov is the U.S. government's official web portal to all federal, state and local government web resources and services.